Regional Weather Roundup
Issued by NWS

Home | Current Version | Previous Version | Text Only | Print | Product List | Glossary Off
Versions: 1 2 3 4 5 6 7 8 9 10 11 12 13 14 15 16 17 18 19 20 21 22 23 24 25 26 27 28 29 30 31 32 33 34 35 36 37 38 39 40 41 42 43 44 45 46 47 48 49 50

000
ASUS43 KTOP 200908
RWRKS

WEATHER ROUNDUP FOR KANSAS
NATIONAL WEATHER SERVICE GOODLAND KS
400 AM CDT WED AUG 20 2014

NOTE:  "FAIR" INDICATES FEW OR NO CLOUDS BELOW 12,000 FEET WITH NO
SIGNIFICANT WEATHER AND/OR OBSTRUCTIONS TO VISIBILITY.

KSZ001>006-013>018-027>032-041>047-201000-
NORTHWEST KANSAS

CITY           SKY/WX    TMP DP  RH WIND       PRES   REMARKS
GOODLAND       CLOUDY    74  59  59 S13       29.84S
HAYS           CLEAR     73  61  64 S14       29.81S
HILL CITY      PTCLDY    74  62  66 S6        29.80S
RUSSELL        PTCLDY    77  62  59 S21G26    29.79S
$$

KSZ061>065-074>080-084>089-201000-
SOUTHWEST KANSAS

CITY           SKY/WX    TMP DP  RH WIND       PRES   REMARKS
DODGE CITY     CLEAR     71  61  70 S12       29.86R
ELKHART          N/A     68  60  75 S8          N/A
GARDEN CITY    CLEAR     70  62  76 S9        29.84F
GREAT BEND     CLEAR     75  61  60 S13       29.83S
LIBERAL        CLEAR     73  61  64 S12       29.88S
PRATT          CLEAR     72  61  68 S10       29.86S
$$

KSZ066>073-081>083-090>101-201000-
SOUTHEAST KANSAS

CITY           SKY/WX    TMP DP  RH WIND       PRES   REMARKS
CHANUTE        CLEAR     74  69  85 S7        29.87S
COFFEYVILLE    CLEAR     75  71  87 S7        29.87S
HUTCHINSON     PTCLDY    75  65  70 S9        29.84S
MEDICINE LODGE   N/A     74  64  71 S8        29.84S
NEWTON         PTCLDY    75  63  64 S13       29.88F
PARSONS        CLEAR     76  70  82 S6        29.88S
WICHITA INTL   PTCLDY    74  67  78 S9        29.84F
WICHITA JABRA  PTCLDY    76  67  73 S10       29.85F
WICHITA MCCONL PTCLDY    75  72  89 S10       29.85F
WINFIELD       CLEAR     72  69  90 S6        29.87S
$$

KSZ007>012-019>026-033>040-048>060-102>105-201000-
NORTHEAST KANSAS

CITY           SKY/WX    TMP DP  RH WIND       PRES   REMARKS
CONCORDIA      MOCLDY    76  67  73 S14G22    29.79S
EMPORIA        CLEAR     74  68  81 S9        29.85S
LAWRENCE       PTCLDY    81  69  67 SW13      29.82F
MANHATTAN      PTCLDY    79  68  69 SW13      29.80F
MARYSVILLE     MOCLDY    77  68  73 SW9       29.79S
OLATHE IND     PTCLDY    78  69  73 S13       29.85S
OLATHE EXE     CLEAR     78  69  73 SW8       29.85R
SALINA         MOCLDY    77  67  71 S9        29.81S
TOPEKA BILLARD PTCLDY    79  69  71 S10       29.82S
TOPEKA FORBES  PTCLDY    75  67  76 S8        29.83S
$$



USA.gov is the U.S. government's official web portal to all federal, state and local government web resources and services.